Weather History for Port Huron, MI

Change the Weather History Date:

Thursday, November 17, 2011

  Actual Average (KMTC) Record (KMTC)
Temperature  
Mean Temperature 32 °F -  
Max Temperature 37 °F 47 °F 68 °F (1953)
Min Temperature 26 °F 32 °F 13 °F (1959)
Degree Days  
Heating Degree Days 34    
Moisture  
Dew Point 20 °F    
Average Humidity 63    
Maximum Humidity 80    
Minimum Humidity 44    
Precipitation  
Precipitation 0.00 in - - ()
Sea Level Pressure  
Sea Level Pressure 30.02 in    
Wind  
Wind Speed 5 mph (WSW)    
Max Wind Speed 15 mph    
Max Gust Speed 23 mph    
Visibility 10 miles    
Events Snow    
Averages and records for this station are not official NWS values.
T = Trace of Precipitation, MM = Missing Value Source: NWS Daily Summary

Daily Weather History Graph

Daily Weather History Graph

Search for Another Location

Airport:

Trip Planner

Search our weather history database for the weather conditions in past years. The results will help you decide how hot, cold, wet, or windy it might be!

Date:

Astronomy

Nov. 17, 2011 Rise Set
Actual Time 7:24 AM EST 5:05 PM EST
Civil Twilight 6:53 AM EST 5:35 PM EST
Nautical Twilight 6:19 AM EST 6:10 PM EST
Astronomical Twilight 5:45 AM EST 6:43 PM EST
Moon 11:27 PM EST (11/17) 12:30 PM EST (11/17)
Length of Visible Light 10h 42m
Length of Day
9h 40m
Waning Gibbous, 60% of the Moon is Illuminated
Nov 17
Waning Gibbous
Nov 18
Last Quarter
Nov 25
New
Dec 2
First Quarter
Dec 10
Full

Hourly Weather History & Observations

Time (EST) Temp. Windchill Dew Point Humidity Pressure Visibility Wind Dir Wind Speed Gust Speed Precip Events Conditions
12:16 AM 32.0 °F - 21.2 °F 64% 30.03 in 10.0 mi Calm Calm - N/A   Clear
12:36 AM 30.2 °F 26.7 °F 21.2 °F 69% 30.03 in 10.0 mi WSW 3.5 mph - N/A   Clear
12:57 AM 30.2 °F 26.7 °F 21.2 °F 69% 30.03 in 10.0 mi WSW 3.5 mph - N/A   Clear
1:16 AM 30.2 °F - 21.2 °F 69% 30.02 in 10.0 mi Calm Calm - N/A   Clear
1:36 AM 30.2 °F - 21.2 °F 69% 30.02 in 10.0 mi Calm Calm - N/A   Clear
1:57 AM 30.2 °F - 21.2 °F 69% 30.02 in 10.0 mi Calm Calm - N/A   Clear
2:16 AM 30.2 °F - 21.2 °F 69% 30.02 in 10.0 mi Calm Calm - N/A   Clear
2:36 AM 30.2 °F 26.7 °F 19.4 °F 64% 30.03 in 10.0 mi SW 3.5 mph - N/A   Clear
2:56 AM 26.6 °F 21.2 °F 21.2 °F 80% 30.03 in 10.0 mi SSW 4.6 mph - N/A   Clear
3:17 AM 26.6 °F 22.6 °F 21.2 °F 80% 30.03 in 10.0 mi SW 3.5 mph - N/A   Clear
3:36 AM 28.4 °F - 19.4 °F 69% 30.03 in 10.0 mi Calm Calm - N/A   Clear
3:57 AM 26.6 °F 22.6 °F 19.4 °F 74% 30.02 in 10.0 mi SSW 3.5 mph - N/A   Clear
4:16 AM 26.6 °F 22.6 °F 21.2 °F 80% 30.02 in 10.0 mi South 3.5 mph - N/A   Clear
4:37 AM 28.4 °F 24.6 °F 19.4 °F 69% 30.02 in 10.0 mi SW 3.5 mph - N/A   Clear
4:56 AM 26.6 °F 22.6 °F 19.4 °F 74% 30.01 in 10.0 mi South 3.5 mph - N/A   Clear
5:17 AM 26.6 °F 22.6 °F 19.4 °F 74% 30.01 in 10.0 mi SSW 3.5 mph - N/A   Clear
5:37 AM 28.4 °F 24.6 °F 19.4 °F 69% 30.02 in 10.0 mi SW 3.5 mph - N/A   Clear
5:56 AM 28.4 °F 23.3 °F 19.4 °F 69% 30.01 in 10.0 mi SW 4.6 mph - N/A   Clear
6:16 AM 28.4 °F 23.3 °F 19.4 °F 69% 30.01 in 10.0 mi SW 4.6 mph - N/A   Clear
6:36 AM 28.4 °F 24.6 °F 19.4 °F 69% 30.01 in 10.0 mi SW 3.5 mph - N/A   Clear
6:56 AM 28.4 °F 24.6 °F 19.4 °F 69% 30.01 in 10.0 mi SW 3.5 mph - N/A   Mostly Cloudy
7:16 AM 28.4 °F 24.6 °F 21.2 °F 74% 30.01 in 10.0 mi SW 3.5 mph - N/A   Overcast
7:37 AM 30.2 °F 25.4 °F 21.2 °F 69% 30.01 in 10.0 mi SW 4.6 mph - N/A   Overcast
7:56 AM 30.2 °F 25.4 °F 21.2 °F 69% 30.01 in 10.0 mi SSW 4.6 mph - N/A   Overcast
8:16 AM 30.2 °F 26.7 °F 21.2 °F 69% 30.01 in 10.0 mi SSW 3.5 mph - N/A   Overcast
8:36 AM 32.0 °F 27.5 °F 21.2 °F 64% 30.01 in 10.0 mi SW 4.6 mph - N/A   Overcast
8:57 AM 32.0 °F 25.6 °F 21.2 °F 64% 30.00 in 10.0 mi SW 6.9 mph - N/A   Overcast
9:16 AM 33.8 °F 27.7 °F 21.2 °F 60% 30.00 in 10.0 mi WSW 6.9 mph - N/A   Mostly Cloudy
9:37 AM 33.8 °F 27.7 °F 21.2 °F 60% 29.99 in 10.0 mi SW 6.9 mph - N/A   Unknown
9:57 AM 35.6 °F 30.7 °F 21.2 °F 56% 29.99 in 10.0 mi West 5.8 mph - N/A   Unknown
10:16 AM 35.6 °F 29.2 °F 19.4 °F 52% 29.99 in 10.0 mi WSW 8.1 mph 16.1 mph N/A   Unknown
10:36 AM 35.6 °F 27.5 °F 19.4 °F 52% 29.99 in 10.0 mi WSW 11.5 mph 18.4 mph N/A   Unknown
10:57 AM 37.4 °F 32.8 °F 21.2 °F 52% 29.99 in 10.0 mi West 5.8 mph 16.1 mph N/A   Unknown
11:17 AM 35.6 °F 27.1 °F 19.4 °F 52% 29.99 in 10.0 mi WNW 12.7 mph 19.6 mph N/A   Unknown
11:36 AM 35.6 °F 28.0 °F 21.2 °F 56% 29.99 in 10.0 mi West 10.4 mph 19.6 mph N/A   Unknown
11:57 AM 37.4 °F 28.9 °F 19.4 °F 48% 29.99 in 10.0 mi WNW 13.8 mph 23.0 mph N/A   Unknown
12:16 PM - - - N/A% 29.98 in - North - - N/A   Unknown
12:36 PM 35.6 °F 28.0 °F 15.8 °F 44% 29.97 in 10.0 mi West 10.4 mph 18.4 mph N/A   Overcast
12:56 PM 33.8 °F 25.3 °F 19.4 °F 56% 29.98 in 10.0 mi WNW 11.5 mph 20.7 mph N/A   Overcast
1:17 PM 33.8 °F 25.8 °F 21.2 °F 60% 29.98 in 10.0 mi West 10.4 mph 17.3 mph N/A   Overcast
1:36 PM 35.6 °F 29.2 °F 21.2 °F 56% 29.97 in 10.0 mi West 8.1 mph - N/A   Overcast
1:57 PM 33.8 °F 25.3 °F 21.2 °F 60% 29.98 in 5.0 mi West 11.5 mph 18.4 mph N/A Snow Light Snow
2:16 PM 33.8 °F 26.4 °F 19.4 °F 56% 29.98 in 10.0 mi West 9.2 mph 17.3 mph N/A   Overcast
2:36 PM 33.8 °F 25.3 °F 15.8 °F 48% 29.99 in 10.0 mi West 11.5 mph 21.9 mph N/A   Overcast
2:56 PM 33.8 °F 23.9 °F 15.8 °F 48% 29.99 in 10.0 mi WNW 15.0 mph 19.6 mph N/A   Overcast
3:17 PM 33.8 °F 25.3 °F 14.0 °F 44% 30.00 in 10.0 mi West 11.5 mph 19.6 mph N/A   Overcast
3:36 PM 33.8 °F 24.3 °F 15.8 °F 48% 30.01 in 10.0 mi WNW 13.8 mph 23.0 mph N/A   Overcast
3:57 PM 32.0 °F 22.5 °F 17.6 °F 55% 30.03 in 7.0 mi West 12.7 mph 21.9 mph N/A Snow Light Snow
4:16 PM 32.0 °F 22.5 °F 15.8 °F 51% 30.04 in 10.0 mi West 12.7 mph 21.9 mph N/A   Overcast
4:37 PM 32.0 °F 23.6 °F 19.4 °F 60% 30.05 in 10.0 mi West 10.4 mph 19.6 mph N/A   Overcast
4:56 PM 32.0 °F 22.5 °F 17.6 °F 55% 30.05 in 10.0 mi West 12.7 mph 18.4 mph N/A   Overcast
5:16 PM 32.0 °F 22.5 °F 17.6 °F 55% 30.06 in 10.0 mi West 12.7 mph 23.0 mph N/A   Overcast
5:37 PM 30.2 °F 25.4 °F 17.6 °F 60% 30.08 in 10.0 mi West 4.6 mph - N/A   Overcast
5:56 PM 30.2 °F 24.3 °F 17.6 °F 60% 30.09 in 10.0 mi West 5.8 mph - N/A   Overcast
6:16 PM 30.2 °F 23.4 °F 21.2 °F 69% 30.10 in 10.0 mi West 6.9 mph - N/A   Scattered Clouds
6:36 PM 28.4 °F 20.4 °F 21.2 °F 74% 30.10 in 10.0 mi West 8.1 mph - N/A   Scattered Clouds
6:57 PM 28.4 °F 22.2 °F 19.4 °F 69% 30.11 in 10.0 mi West 5.8 mph - N/A   Scattered Clouds
7:16 PM 28.4 °F 21.2 °F 17.6 °F 64% 30.11 in 10.0 mi WSW 6.9 mph - N/A   Scattered Clouds
7:37 PM 28.4 °F 21.2 °F 17.6 °F 64% 30.12 in 10.0 mi WSW 6.9 mph - N/A   Clear
7:57 PM 30.2 °F 22.6 °F 17.6 °F 60% 30.13 in 10.0 mi WSW 8.1 mph - N/A   Clear
8:17 PM 28.4 °F 22.2 °F 17.6 °F 64% 30.14 in 10.0 mi West 5.8 mph - N/A   Clear
8:36 PM 28.4 °F 22.2 °F 17.6 °F 64% 30.15 in 10.0 mi West 5.8 mph - N/A   Clear
8:57 PM 28.4 °F 22.2 °F 17.6 °F 64% 30.16 in 10.0 mi WSW 5.8 mph - N/A   Clear
9:16 PM 28.4 °F 24.6 °F 17.6 °F 64% 30.16 in 10.0 mi WSW 3.5 mph - N/A   Clear
9:37 PM 28.4 °F 23.3 °F 17.6 °F 64% 30.16 in 10.0 mi WSW 4.6 mph - N/A   Clear
9:57 PM 28.4 °F 24.6 °F 17.6 °F 64% 30.17 in 10.0 mi WSW 3.5 mph - N/A   Clear
10:16 PM 28.4 °F 23.3 °F 17.6 °F 64% 30.17 in 10.0 mi WSW 4.6 mph - N/A   Clear
10:36 PM 28.4 °F 24.6 °F 17.6 °F 64% 30.18 in 10.0 mi SW 3.5 mph - N/A   Clear
10:56 PM 26.6 °F 22.6 °F 17.6 °F 69% 30.18 in 10.0 mi WSW 3.5 mph - N/A   Clear
11:36 PM 26.6 °F 22.6 °F 19.4 °F 74% 30.19 in 10.0 mi SW 3.5 mph - N/A   Clear
11:57 PM 26.6 °F 22.6 °F 19.4 °F 74% 30.19 in 10.0 mi WSW 3.5 mph - N/A   Clear